EW3197 Weather Reports


Display with metric or nautical units.
time (UTC)temp
F
wind
direction
speed
MPH
gust
MPH
rain 1hr
in
rain 24hr
in
rain mn
in
humidity
%
barometer
mb
20260506174703 62 239 1.0 2.0 0.06 0.12 0.12 87 1005.5
20260506174204 62 239 0.0 3.0 0.07 0.12 0.12 87 1005.5
20260506173704 62 143 1.0 2.0 0.07 0.11 0.11 87 1005.6
20260506172704 63 141 1.0 3.0 0.09 0.11 0.11 87 1005.4
20260506172204 63 137 0.0 1.0 0.09 0.11 0.11 87 1005.5
20260506171704 63 136 0.0 2.0 0.09 0.10 0.10 87 1005.6
20260506171204 62 135 1.0 2.0 0.09 0.10 0.10 86 1005.7
20260506170704 62 134 0.0 2.0 0.09 0.10 0.10 86 1005.8
20260506170204 62 133 1.0 3.0 0.09 0.09 0.09 86 1005.9
20260506165704 62 214 1.0 3.0 0.08 0.08 0.08 85 1006.2
20260506165204 62 165 1.0 3.0 0.07 0.07 0.07 85 1006.4
20260506164704 62 139 1.0 3.0 0.06 0.06 0.06 85 1006.4
20260506164204 62 139 1.0 3.0 0.05 0.05 0.05 84 1006.6
20260506163705 63 135 1.0 2.0 0.04 0.04 0.04 84 1006.6
20260506163204 63 136 1.0 3.0 0.04 0.04 0.04 83 1006.7
20260506162704 63 216 1.0 3.0 0.02 0.02 0.02 83 1006.6
20260506162204 63 126 0.0 2.0 0.02 0.02 0.02 82 1006.5
20260506161205 63 127 1.0 5.0 0.01 0.01 0.01 81 1006.6
20260506160203 64 136 1.0 3.0 0.00 0.00 0.00 80 1006.8
20260506155704 64 160 1.0 3.0 0.00 0.00 0.00 79 1006.8
20260506154705 64 103 1.0 7.0 0.00 0.00 0.00 79 1006.9
20260506154204 64 194 1.0 7.0 0.00 0.00 0.00 79 1006.9
20260506153704 65 127 1.0 3.0 0.00 0.00 0.00 78 1006.8
20260506153204 65 156 1.0 2.0 0.00 0.00 0.00 78 1006.8
20260506152204 65 236 1.0 3.0 0.00 0.00 0.00 76 1006.9
20260506151203 66 142 1.0 2.0 0.00 0.00 0.00 74 1007.1
20260506150704 66 147 1.0 2.0 0.00 0.00 0.00 74 1007.0
20260506150205 66 140 1.0 3.0 0.00 0.00 0.00 74 1007.1
20260506145704 66 131 1.0 3.0 0.00 0.00 0.00 74 1007.2
20260506145205 66 124 1.0 3.0 0.00 0.00 0.00 74 1007.3
20260506144204 66 121 1.0 7.0 0.00 0.00 0.00 73 1007.4
20260506143704 66 149 1.0 3.0 0.00 0.00 0.00 74 1007.4
20260506143203 66 224 1.0 2.0 0.00 0.00 0.00 74 1007.4
20260506142705 66 198 1.0 2.0 0.00 0.00 0.00 74 1007.4
20260506141704 66 149 2.0 6.0 0.00 0.00 0.00 73 1007.3
20260506141205 66 156 1.0 7.0 0.00 0.00 0.00 73 1007.4
20260506140205 66 192 1.0 2.0 0.00 0.00 0.00 73 1007.4
20260506135705 66 194 2.0 5.0 0.00 0.00 0.00 73 1007.3
20260506135205 66 214 1.0 3.0 0.00 0.00 0.00 73 1007.3
20260506134205 66 214 1.0 10.0 0.00 0.00 0.00 73 1007.2
20260506133705 66 211 3.0 8.0 0.00 0.00 0.00 73 1007.3
20260506133205 66 128 1.0 3.0 0.00 0.00 0.00 73 1007.1
20260506132205 66 184 1.0 3.0 0.00 0.00 0.00 74 1007.0
20260506131705 65 190 2.0 8.0 0.00 0.00 0.00 74 1007.0
20260506131205 65 160 1.0 3.0 0.00 0.00 0.00 74 1007.1
20260506130205 65 162 2.0 5.0 0.00 0.00 0.00 75 1007.0
20260506125705 65 187 2.0 5.0 0.00 0.00 0.00 75 1007.1
20260506125205 65 154 1.0 5.0 0.00 0.00 0.00 75 1007.1
20260506124706 64 206 2.0 7.0 0.00 0.00 0.00 75 1007.5
20260506124205 64 128 1.0 3.0 0.00 0.00 0.00 76 1007.5
20260506123706 64 130 2.0 6.0 0.00 0.00 0.00 76 1007.5
20260506123204 64 211 2.0 7.0 0.00 0.00 0.00 75 1007.5
20260506122705 64 199 1.0 3.0 0.00 0.00 0.00 76 1007.6
20260506122204 64 199 2.0 9.0 0.00 0.00 0.00 76 1007.6
20260506121705 64 333 2.0 7.0 0.00 0.00 0.00 76 1007.7
20260506121208 64 167 1.0 5.0 0.00 0.00 0.00 76 1007.8
20260506120205 63 145 1.0 3.0 0.00 0.00 0.00 77 1007.6
20260506115707 63 149 2.0 3.0 0.00 0.00 0.00 77 1007.7
20260506115205 63 213 2.0 7.0 0.00 0.00 0.00 76 1007.6
20260506114704 63 180 1.0 2.0 0.00 0.00 0.00 77 1007.5
20260506114205 63 180 1.0 3.0 0.00 0.00 0.00 76 1007.4
20260506113705 63 204 1.0 3.0 0.00 0.00 0.00 76 1007.6
20260506113204 63 172 1.0 7.0 0.00 0.00 0.00 76 1007.5
20260506112205 63 202 1.0 8.0 0.00 0.00 0.00 76 1007.6
20260506111704 63 168 1.0 5.0 0.00 0.00 0.00 76 1007.4
20260506111205 63 203 2.0 6.0 0.00 0.00 0.00 76 1007.6
20260506110705 63 157 2.0 3.0 0.00 0.00 0.00 76 1007.5
20260506110205 63 203 1.0 5.0 0.00 0.00 0.00 76 1007.4
20260506105705 63 135 2.0 3.0 0.00 0.00 0.00 75 1007.3
20260506105204 63 149 2.0 3.0 0.00 0.00 0.00 75 1007.3
20260506104705 63 152 2.0 3.0 0.00 0.00 0.00 75 1007.3
20260506104205 63 198 2.0 10.0 0.00 0.00 0.00 75 1007.3
20260506103705 63 174 2.0 6.0 0.00 0.00 0.00 74 1007.4
20260506103205 63 143 1.0 3.0 0.00 0.00 0.00 74 1007.7
20260506102704 63 136 2.0 3.0 0.00 0.00 0.00 74 1007.5
20260506102205 63 133 1.0 5.0 0.00 0.00 0.00 74 1007.5
20260506101705 63 144 1.0 3.0 0.00 0.00 0.00 74 1007.5
20260506101205 63 147 1.0 2.0 0.00 0.00 0.00 74 1007.3
20260506100205 63 43 1.0 3.0 0.00 0.00 0.00 74 1007.3
20260506095705 63 45 2.0 6.0 0.00 0.00 0.00 74 1007.3
20260506095205 62 154 2.0 3.0 0.00 0.00 0.00 74 1007.2
20260506094704 62 170 1.0 5.0 0.00 0.00 0.00 74 1007.1
20260506094205 62 165 1.0 2.0 0.00 0.00 0.00 73 1007.0
20260506093704 63 164 1.0 5.0 0.00 0.00 0.00 73 1007.2
20260506092205 62 170 1.0 3.0 0.00 0.00 0.00 73 1007.1
20260506091705 62 141 1.0 3.0 0.00 0.00 0.00 73 1006.9
20260506091204 62 230 1.0 3.0 0.00 0.00 0.00 73 1007.1
20260506090705 62 230 1.0 2.0 0.00 0.00 0.00 73 1007.2
20260506085705 63 224 1.0 3.0 0.00 0.00 0.00 71 1007.2
20260506085204 63 212 2.0 3.0 0.00 0.00 0.00 70 1007.3
20260506084705 64 159 1.0 3.0 0.00 0.00 0.00 70 1007.3
20260506084205 64 193 2.0 3.0 0.00 0.00 0.00 70 1007.4
20260506083705 64 192 1.0 3.0 0.00 0.00 0.00 70 1007.3
20260506083204 64 192 1.0 3.0 0.00 0.00 0.00 70 1007.4
20260506082705 64 192 1.0 3.0 0.00 0.00 0.00 70 1007.3
20260506081705 64 189 1.0 6.0 0.00 0.00 0.00 70 1007.2
20260506081205 63 205 0.0 3.0 0.00 0.00 0.00 71 1007.4
20260506080705 63 205 1.0 3.0 0.00 0.00 0.00 71 1007.4
20260506080205 63 205 1.0 3.0 0.00 0.00 0.00 70 1007.4
20260506072705 64 204 1.0 3.0 0.00 0.00 0.00 69 1007.5
20260506072205 64 204 0.0 3.0 0.00 0.00 0.00 69 1007.5
20260506071205 65 204 0.0 5.0 0.00 0.00 0.00 68 1007.6
20260506070203 65 202 0.0 3.0 0.00 0.00 0.00 68 1007.6
20260506062204 66 171 2.0 3.0 0.00 0.00 0.00 65 1007.8
20260506061704 66 132 2.0 5.0 0.00 0.00 0.00 65 1007.8
20260506061204 67 147 1.0 2.0 0.00 0.00 0.00 64 1007.8
20260506060203 67 137 2.0 5.0 0.00 0.00 0.00 64 1007.7
20260506051204 68 131 1.0 3.0 0.00 0.00 0.00 61 1008.0
20260506050703 68 130 2.0 3.0 0.00 0.00 0.00 61 1008.0
20260506044704 68 99 0.0 2.0 0.00 0.00 0.00 60 1008.0
20260506044204 68 99 0.0 2.0 0.00 0.00 0.00 60 1007.9
20260506043704 68 99 1.0 3.0 0.00 0.00 0.00 59 1007.8
20260506043204 69 70 1.0 3.0 0.00 0.00 0.00 59 1007.8
20260506042203 69 200 1.0 3.0 0.00 0.00 0.00 58 1007.8
20260506041204 69 137 1.0 5.0 0.00 0.00 0.00 57 1007.7
20260506040704 70 144 0.0 3.0 0.00 0.00 0.00 57 1007.7
20260506040204 70 143 2.0 3.0 0.00 0.00 0.00 56 1007.6
20260506035704 70 339 1.0 3.0 0.00 0.00 0.00 56 1007.7
20260506034705 70 147 1.0 3.0 0.00 0.00 0.00 54 1007.6
20260506034204 71 154 1.0 3.0 0.00 0.00 0.00 54 1007.6
20260506033704 71 158 2.0 5.0 0.00 0.00 0.00 53 1007.6
20260506033204 71 135 1.0 3.0 0.00 0.00 0.00 53 1007.6
20260506032704 72 135 2.0 5.0 0.00 0.00 0.00 52 1007.6
20260506032204 72 132 2.0 6.0 0.00 0.00 0.00 50 1007.5
20260506031704 72 170 2.0 7.0 0.00 0.00 0.00 50 1007.6
20260506031204 72 121 1.0 3.0 0.00 0.00 0.00 50 1007.5
20260506030704 72 109 2.0 5.0 0.00 0.00 0.00 50 1007.5
20260506025703 71 161 1.0 2.0 0.00 0.00 0.00 51 1007.6
20260506025204 71 217 1.0 3.0 0.00 0.00 0.00 54 1007.4
20260506024704 72 217 1.0 3.0 0.00 0.00 0.00 52 1007.4
20260506024204 72 120 1.0 3.0 0.00 0.00 0.00 50 1007.6
20260506023704 72 258 1.0 3.0 0.00 0.00 0.00 52 1007.6
20260506023204 72 210 1.0 3.0 0.00 0.00 0.00 51 1007.6
20260506022704 72 158 1.0 3.0 0.00 0.00 0.00 52 1007.7
20260506022203 72 153 1.0 7.0 0.00 0.00 0.00 51 1007.6
20260506021704 72 128 1.0 3.0 0.00 0.00 0.00 51 1007.6
20260506021204 72 140 1.0 2.0 0.00 0.00 0.00 52 1007.5
20260506020704 72 140 1.0 3.0 0.00 0.00 0.00 51 1007.6
20260506020204 72 133 1.0 7.0 0.00 0.00 0.00 52 1007.6
20260506015703 72 134 1.0 2.0 0.00 0.00 0.00 51 1007.5
20260506015204 72 135 1.0 7.0 0.00 0.00 0.00 51 1007.4
20260506013704 72 124 1.0 3.0 0.00 0.00 0.00 52 1007.4
20260506013203 72 139 1.0 2.0 0.00 0.00 0.00 53 1007.3
20260506012204 72 139 1.0 3.0 0.00 0.00 0.00 54 1007.2
20260506011703 72 129 1.0 3.0 0.00 0.00 0.00 53 1007.2
20260506011204 72 128 1.0 3.0 0.00 0.00 0.00 52 1007.1
20260506010703 73 129 1.0 3.0 0.00 0.00 0.00 53 1007.2
20260506010203 73 119 1.0 3.0 0.00 0.00 0.00 52 1007.0
20260506005204 73 117 1.0 3.0 0.00 0.00 0.00 52 1006.9
20260506004204 73 193 1.0 3.0 0.00 0.00 0.00 53 1006.8
20260506003703 73 128 1.0 3.0 0.00 0.00 0.00 51 1006.7
20260506003204 74 127 1.0 7.0 0.00 0.00 0.00 51 1006.6
20260506002704 74 104 1.0 3.0 0.00 0.00 0.00 50 1006.6
20260506001704 74 201 1.0 2.0 0.00 0.00 0.00 51 1006.3
20260506000704 74 223 2.0 5.0 0.00 0.00 0.00 49 1006.4
20260506000205 74 223 1.0 3.0 0.00 0.00 0.00 50 1006.3
20260505235203 75 223 0.0 2.0 0.00 0.00 0.00 48 1006.2
20260505234704 75 226 1.0 2.0 0.00 0.00 0.00 47 1006.1
20260505234204 76 226 0.0 2.0 0.00 0.00 0.00 47 1006.0
20260505233703 76 229 2.0 9.0 0.00 0.00 0.00 44 1005.9
20260505233204 76 193 1.0 3.0 0.00 0.00 0.00 44 1005.9
20260505232203 77 218 2.0 15.0 0.00 0.00 0.00 44 1005.7
20260505231704 76 246 2.0 8.0 0.00 0.00 0.00 45 1005.7
20260505231204 77 219 2.0 5.0 0.00 0.00 0.00 44 1005.6
20260505230703 77 218 2.0 5.0 0.00 0.00 0.00 44 1005.5
20260505225704 77 211 1.0 6.0 0.00 0.00 0.00 44 1005.4
20260505224703 77 208 1.0 5.0 0.00 0.00 0.00 44 1005.2
20260505224204 78 189 1.0 3.0 0.00 0.00 0.00 44 1005.2
20260505223204 78 203 2.0 5.0 0.00 0.00 0.00 44 1005.1
20260505222704 78 214 2.0 6.0 0.00 0.00 0.00 43 1005.0
20260505222203 78 213 2.0 3.0 0.00 0.00 0.00 43 1005.0
20260505221704 78 205 2.0 8.0 0.00 0.00 0.00 42 1004.8
20260505221204 79 166 2.0 6.0 0.00 0.00 0.00 42 1004.8
20260505220203 79 108 2.0 3.0 0.00 0.00 0.00 42 1004.7
20260505215703 80 103 2.0 7.0 0.00 0.00 0.00 41 1004.8
20260505214203 81 181 3.0 7.0 0.00 0.00 0.00 39 1004.6
20260505213703 81 156 1.0 15.0 0.00 0.00 0.00 35 1004.6
20260505212704 81 206 7.0 17.0 0.00 0.00 0.00 33 1004.6
20260505212204 81 194 6.0 12.0 0.00 0.00 0.00 34 1004.6
20260505210704 81 187 4.0 12.0 0.00 0.00 0.00 35 1004.3
20260505210204 82 181 2.0 9.0 0.00 0.00 0.00 36 1004.2
20260505205704 82 204 4.0 13.0 0.00 0.00 0.00 35 1004.3
20260505205204 83 210 4.0 8.0 0.00 0.00 0.00 33 1004.4
20260505204704 85 209 5.0 12.0 0.00 0.00 0.00 34 1004.3
20260505204203 84 220 1.0 18.0 0.00 0.00 0.00 34 1004.4
20260505203204 83 209 6.0 16.0 0.00 0.00 0.00 32 1004.8
20260505202704 84 234 3.0 14.0 0.00 0.00 0.00 34 1004.9
20260505202204 83 236 5.0 21.0 0.00 0.00 0.00 31 1004.7
20260505201703 83 214 7.0 23.0 0.00 0.00 0.00 30 1004.6
20260505201203 83 209 5.0 12.0 0.00 0.00 0.00 32 1004.5
20260505200704 83 212 8.0 26.0 0.00 0.00 0.00 30 1004.6
20260505200204 83 218 6.0 17.0 0.00 0.00 0.00 30 1004.5
20260505195204 84 213 6.0 15.0 0.00 0.00 0.00 31 1004.5
20260505194704 84 220 8.0 16.0 0.00 0.00 0.00 31 1004.9
20260505193705 85 196 5.0 12.0 0.00 0.00 0.00 32 1004.9
20260505193204 84 196 5.0 10.0 0.00 0.00 0.00 31 1005.0
20260505192204 84 226 6.0 13.0 0.00 0.00 0.00 32 1005.1
20260505191703 84 176 7.0 17.0 0.00 0.00 0.00 31 1005.2
20260505190704 83 196 8.0 18.0 0.00 0.00 0.00 32 1005.1
20260505190204 82 194 4.0 14.0 0.00 0.00 0.00 35 1005.2
20260505185704 82 205 4.0 16.0 0.00 0.00 0.00 35 1005.6
20260505184704 82 164 5.0 10.0 0.00 0.00 0.00 37 1005.6
20260505184205 82 220 5.0 13.0 0.00 0.00 0.00 36 1005.4
20260505183704 82 220 5.0 14.0 0.00 0.00 0.00 36 1005.7
20260505183204 82 184 6.0 17.0 0.00 0.00 0.00 37 1006.0
20260505182704 82 192 6.0 16.0 0.00 0.00 0.00 39 1005.8
20260505182204 82 210 4.0 16.0 0.00 0.00 0.00 38 1005.8
20260505181703 82 186 4.0 12.0 0.00 0.00 0.00 38 1005.8
20260505181204 82 217 4.0 10.0 0.00 0.00 0.00 40 1005.9
20260505180705 82 212 5.0 14.0 0.00 0.00 0.00 39 1005.8
20260505175704 81 176 6.0 21.0 0.00 0.00 0.00 38 1006.0